Location: Bothwell
(41.7170°N, 112.2589°W)
Time: 04:09:19
(UTC+00:00)

Vanguard 1 - Pass Details

Date: 19 May 2026
Orbit: 654 x 3816 km, 34.2° (Epoch: 10 June)

Event Time Altitude Azimuth Distance (km) Brightness Sun altitude
Rises 03:27:50 0° 274° (W) 4,887 14.8 -7.6°
Reaches altitude 10° 03:30:40 10° 268° (W) 4,235 14.2 -8.0°
Maximum altitude 03:42:10 46° 201° (SSW) 3,360 12.6 -9.8°
Enters shadow 03:59:21 13° 139° (SE) 6,359 13.5 -12.2°
